Regional Weather Roundup
Issued by NWS

Home | Current Version | Previous Version | Text Only | Print | Product List | Glossary Off
Versions: 1 2 3 4 5 6 7 8 9 10 11 12 13 14 15 16 17 18 19 20 21 22 23 24 25 26 27 28 29 30 31 32 33 34 35 36 37 38 39 40 41 42 43 44 45 46 47 48 49 50

000
ASUS43 KBIS 201510
RWRND

NORTH DAKOTA REGIONAL WEATHER ROUNDUP
NATIONAL WEATHER SERVICE BISMARCK ND
1000 AM CDT THU JUL 20 2017

NOTE: "FAIR" INDICATES FEW OR NO CLOUDS BELOW 12,000 FEET WITH NO
SIGNIFICANT WEATHER AND/OR OBSTRUCTIONS TO VISIBILITY.


NDZ001>003-009>011-017-201600-
NORTHWEST NORTH DAKOTA

CITY           SKY/WX    TMP DP  RH WIND       PRES   REMARKS
WILLISTON        N/A    N/A N/A N/A MISG      29.96S
MINOT          SUNNY     76  59  55 E14       29.99F
MINOT AFB      SUNNY     70  62  75 SE13      29.98F
$$

NDZ018>021-031>035-040>046-201600-
SOUTHWEST NORTH DAKOTA

CITY           SKY/WX    TMP DP  RH WIND       PRES   REMARKS
BISMARCK       CLOUDY    77  65  66 SE8       30.03F
DICKINSON      SUNNY     80  63  55 S20       29.99S
GARRISON         N/A     76  64  66 SE9       30.01R
HETTINGER ARPT MOSUNNY   78  66  66 S14G26    30.05S
$$

NDZ004>008-012>016-024-026-027-054-201600-
NORTHEAST NORTH DAKOTA

CITY           SKY/WX    TMP DP  RH WIND       PRES   REMARKS
GRAND FORKS    MOSUNNY   70  61  73 CALM      30.01F
GRND FRKS AFB  MOSUNNY   68  60  74 N3        30.02F
DEVILS LAKE    SUNNY     71  58  63 SE5       30.04S
$$

NDZ022-023-025-028>030-036>039-047>053-201600-
SOUTHEAST NORTH DAKOTA

CITY           SKY/WX    TMP DP  RH WIND       PRES   REMARKS
FARGO          MOSUNNY   74  64  71 NE5       30.02S
JAMESTOWN      CLOUDY    76  61  59 SE8       30.04R
$$





USA.gov is the U.S. government's official web portal to all federal, state and local government web resources and services.